Grosse Ile, MI

4:51 PM EDT on July 22, 2017 (GMT -0400)
Grosse Ile Municipal

Weather History for KONZ - November, 2013

Change the Weather History Date:

Sunday, November 24, 2013

  Actual Average (KDTW) Record (KDTW)
Temperature  
Mean Temperature 20 °F -  
Max Temperature 26 °F 43 °F 62 °F (1973)
Min Temperature 15 °F 29 °F 7 °F (1950)
Degree Days  
Heating Degree Days 44    
Moisture  
Dew Point 9 °F    
Average Humidity 62    
Maximum Humidity 80    
Minimum Humidity 40    
Precipitation  
Precipitation 0.00 in - - ()
Sea Level Pressure  
Sea Level Pressure 30.51 in    
Wind  
Wind Speed 9 mph (WNW)    
Max Wind Speed 13 mph    
Max Gust Speed 20 mph    
Visibility 10 miles    
Events      
Averages and records for this station are not official NWS values.
T = Trace of Precipitation, MM = Missing Value Source: NWS Daily Summary

Daily Weather History Graph

Daily Weather History Graph

Search for Another Location

Airport or City:

Trip Planner

Search our weather history database for the weather conditions in past years. The results will help you decide how hot, cold, wet, or windy it might be!

Date:

Astronomy

Nov. 24, 2013 Rise Set
Actual Time 7:33 AM EST 5:04 PM EST
Civil Twilight 7:03 AM EST 5:35 PM EST
Nautical Twilight 6:28 AM EST 6:09 PM EST
Astronomical Twilight 5:55 AM EST 6:43 PM EST
Moon 11:32 PM EST (11/24) 12:18 PM EST (11/24)
Length of Visible Light 10h 32m
Length of Day
9h 30m
Waning Gibbous, 61% of the Moon is Illuminated
Nov 24
Waning Gibbous
Nov 25
Last Quarter
Dec 2
New
Dec 9
First Quarter
Dec 17
Full

Hourly Weather History & Observations

Time (EST) Temp. Windchill Dew Point Humidity Pressure Visibility Wind Dir Wind Speed Gust Speed Precip Events Conditions
12:14 AM 17.6 °F 8.2 °F 6.8 °F 63% 30.49 in 10.0 mi WNW 6.9 mph - N/A   Clear
12:34 AM 17.6 °F 8.2 °F 8.6 °F 68% 30.49 in 10.0 mi WNW 6.9 mph - N/A   Clear
12:54 AM 19.4 °F 7.9 °F 8.6 °F 63% 30.49 in 10.0 mi WNW 10.4 mph - N/A   Mostly Cloudy
1:14 AM 17.6 °F 6.4 °F 8.6 °F 68% 30.49 in 10.0 mi WNW 9.2 mph - N/A   Scattered Clouds
1:34 AM 17.6 °F 5.0 °F 10.4 °F 73% 30.49 in 10.0 mi WNW 11.5 mph - N/A   Clear
1:54 AM 17.6 °F 5.0 °F 10.4 °F 73% 30.49 in 10.0 mi WNW 11.5 mph - N/A   Clear
2:14 AM 17.6 °F 5.7 °F 10.4 °F 73% 30.50 in 10.0 mi WNW 10.4 mph - N/A   Clear
2:34 AM 17.6 °F 6.4 °F 10.4 °F 73% 30.50 in 10.0 mi WNW 9.2 mph - N/A   Clear
2:54 AM 17.6 °F 6.4 °F 8.6 °F 68% 30.51 in 10.0 mi NW 9.2 mph - N/A   Clear
3:14 AM 17.6 °F 7.3 °F 8.6 °F 68% 30.51 in 10.0 mi WNW 8.1 mph - N/A   Clear
3:34 AM 17.6 °F 7.3 °F 8.6 °F 68% 30.51 in 10.0 mi WNW 8.1 mph - N/A   Clear
3:54 AM 17.6 °F 5.7 °F 8.6 °F 68% 30.51 in 10.0 mi WNW 10.4 mph - N/A   Clear
4:14 AM 17.6 °F 5.7 °F 8.6 °F 68% 30.51 in 10.0 mi NW 10.4 mph 18.4 mph N/A   Clear
4:34 AM 17.6 °F 5.0 °F 8.6 °F 68% 30.51 in 10.0 mi WNW 11.5 mph 16.1 mph N/A   Clear
4:54 AM 15.8 °F 2.1 °F 8.6 °F 73% 30.51 in 10.0 mi NW 12.7 mph - N/A   Clear
5:14 AM 15.8 °F 2.7 °F 8.6 °F 73% 30.51 in 10.0 mi WNW 11.5 mph - N/A   Clear
5:34 AM 15.8 °F 2.7 °F 8.6 °F 73% 30.52 in 10.0 mi WNW 11.5 mph 17.3 mph N/A   Clear
5:54 AM 15.8 °F 2.7 °F 8.6 °F 73% 30.52 in 10.0 mi WNW 11.5 mph - N/A   Clear
6:14 AM 15.8 °F 2.1 °F 8.6 °F 73% 30.52 in 10.0 mi WNW 12.7 mph - N/A   Clear
6:34 AM 15.8 °F 3.4 °F 8.6 °F 73% 30.53 in 10.0 mi WNW 10.4 mph - N/A   Clear
6:54 AM 15.8 °F 4.2 °F 8.6 °F 73% 30.53 in 10.0 mi WNW 9.2 mph - N/A   Clear
7:14 AM 15.8 °F 3.4 °F 8.6 °F 73% 30.54 in 10.0 mi WNW 10.4 mph - N/A   Clear
7:34 AM 15.8 °F 4.2 °F 8.6 °F 73% 30.54 in 10.0 mi WNW 9.2 mph - N/A   Clear
7:54 AM 15.8 °F 6.1 °F 8.6 °F 73% 30.55 in 10.0 mi WNW 6.9 mph - N/A   Clear
8:14 AM 15.8 °F 6.1 °F 8.6 °F 73% 30.56 in 10.0 mi West 6.9 mph - N/A   Clear
8:34 AM 17.6 °F 9.3 °F 8.6 °F 68% 30.56 in 10.0 mi WNW 5.8 mph - N/A   Clear
8:54 AM 17.6 °F 6.4 °F 8.6 °F 68% 30.57 in 10.0 mi WNW 9.2 mph - N/A   Clear
9:14 AM 19.4 °F 7.9 °F 10.4 °F 68% 30.57 in 10.0 mi WNW 10.4 mph 17.3 mph N/A   Clear
9:34 AM 19.4 °F 7.9 °F 8.6 °F 63% 30.57 in 10.0 mi WNW 10.4 mph 18.4 mph N/A   Clear
9:54 AM 19.4 °F 7.2 °F 8.6 °F 63% 30.57 in 10.0 mi WNW 11.5 mph 16.1 mph N/A   Clear
10:14 AM 21.2 °F 10.9 °F 10.4 °F 63% 30.57 in 10.0 mi NW 9.2 mph - N/A   Clear
10:34 AM 21.2 °F 10.1 °F 10.4 °F 63% 30.57 in 10.0 mi WNW 10.4 mph 17.3 mph N/A   Scattered Clouds
10:54 AM 23.0 °F 11.7 °F 8.6 °F 54% 30.57 in 10.0 mi NW 11.5 mph - N/A   Mostly Cloudy
11:14 AM 23.0 °F 12.4 °F 8.6 °F 54% 30.57 in 10.0 mi WNW 10.4 mph 17.3 mph N/A   Mostly Cloudy
11:34 AM 23.0 °F 11.1 °F 6.8 °F 50% 30.56 in 10.0 mi NW 12.7 mph 19.6 mph N/A   Mostly Cloudy
11:54 AM 23.0 °F 11.1 °F 6.8 °F 50% 30.55 in 10.0 mi WNW 12.7 mph - N/A   Mostly Cloudy
12:14 PM 23.0 °F 11.1 °F 6.8 °F 50% 30.55 in 10.0 mi NW 12.7 mph 19.6 mph N/A   Mostly Cloudy
12:34 PM 24.8 °F 14.6 °F 6.8 °F 46% 30.54 in 10.0 mi WNW 10.4 mph 16.1 mph N/A   Overcast
12:54 PM 23.0 °F 12.4 °F 6.8 °F 50% 30.53 in 10.0 mi WNW 10.4 mph 17.3 mph N/A   Mostly Cloudy
1:14 PM 24.8 °F 14.6 °F 5.0 °F 43% 30.53 in 10.0 mi WNW 10.4 mph - N/A   Mostly Cloudy
1:34 PM 23.0 °F 12.4 °F 6.8 °F 50% 30.52 in 10.0 mi WNW 10.4 mph 18.4 mph N/A   Mostly Cloudy
1:54 PM 24.8 °F 14.6 °F 6.8 °F 46% 30.52 in 10.0 mi WNW 10.4 mph - N/A   Mostly Cloudy
2:14 PM 24.8 °F 15.3 °F 5.0 °F 43% 30.51 in 10.0 mi NW 9.2 mph - N/A   Overcast
2:34 PM 24.8 °F 15.3 °F 5.0 °F 43% 30.51 in 10.0 mi WNW 9.2 mph - N/A   Overcast
2:54 PM 24.8 °F 14.6 °F 3.2 °F 40% 30.51 in 10.0 mi West 10.4 mph 18.4 mph N/A   Mostly Cloudy
3:14 PM 26.6 °F 16.8 °F 5.0 °F 40% 30.51 in 10.0 mi WNW 10.4 mph - N/A   Overcast
3:34 PM 26.6 °F 16.2 °F 5.0 °F 40% 30.51 in 10.0 mi NW 11.5 mph 18.4 mph N/A   Overcast
3:54 PM 24.8 °F 16.9 °F 6.8 °F 46% 30.51 in 10.0 mi WNW 6.9 mph - N/A   Mostly Cloudy
4:14 PM 24.8 °F 14.6 °F 5.0 °F 43% 30.51 in 10.0 mi West 10.4 mph - N/A   Scattered Clouds
4:34 PM 24.8 °F 14.0 °F 5.0 °F 43% 30.51 in 10.0 mi West 11.5 mph - N/A   Clear
4:54 PM 24.8 °F 16.1 °F 6.8 °F 46% 30.51 in 10.0 mi WNW 8.1 mph - N/A   Clear
5:14 PM 24.8 °F 16.1 °F 6.8 °F 46% 30.51 in 10.0 mi West 8.1 mph - N/A   Clear
5:34 PM 23.0 °F 14.7 °F 6.8 °F 50% 30.51 in 10.0 mi WNW 6.9 mph - N/A   Clear
5:54 PM 23.0 °F 18.4 °F 6.8 °F 50% 30.51 in 10.0 mi West 3.5 mph - N/A   Clear
6:14 PM 23.0 °F 15.8 °F 8.6 °F 54% 30.51 in 10.0 mi West 5.8 mph - N/A   Clear
6:34 PM 23.0 °F 17.0 °F 8.6 °F 54% 30.50 in 10.0 mi West 4.6 mph - N/A   Clear
6:54 PM 23.0 °F 17.0 °F 8.6 °F 54% 30.50 in 10.0 mi West 4.6 mph - N/A   Clear
7:14 PM 21.2 °F 16.4 °F 8.6 °F 58% 30.49 in 10.0 mi WSW 3.5 mph - N/A   Clear
7:34 PM 23.0 °F - 8.6 °F 54% 30.48 in 10.0 mi Calm Calm - N/A   Clear
7:54 PM 21.2 °F 16.4 °F 8.6 °F 58% 30.47 in 10.0 mi WSW 3.5 mph - N/A   Clear
8:14 PM 21.2 °F 12.6 °F 10.4 °F 63% 30.47 in 10.0 mi SW 6.9 mph - N/A   Clear
8:34 PM 21.2 °F 13.6 °F 12.2 °F 68% 30.47 in 10.0 mi SW 5.8 mph - N/A   Clear
8:54 PM 21.2 °F 14.9 °F 12.2 °F 68% 30.46 in 10.0 mi SW 4.6 mph - N/A   Clear
9:14 PM 21.2 °F 13.6 °F 14.0 °F 74% 30.46 in 10.0 mi SW 5.8 mph - N/A   Clear
9:34 PM 21.2 °F 13.6 °F 14.0 °F 74% 30.45 in 10.0 mi SW 5.8 mph - N/A   Clear
9:54 PM 21.2 °F 11.7 °F 14.0 °F 74% 30.44 in 10.0 mi SW 8.1 mph - N/A   Clear
10:14 PM 21.2 °F 10.9 °F 14.0 °F 74% 30.44 in 10.0 mi SW 9.2 mph - N/A   Clear
10:34 PM 21.2 °F 10.9 °F 15.8 °F 80% 30.43 in 10.0 mi SW 9.2 mph - N/A   Clear
10:54 PM 21.2 °F 10.1 °F 15.8 °F 80% 30.43 in 10.0 mi SW 10.4 mph - N/A   Clear
11:14 PM 21.2 °F 10.9 °F 15.8 °F 80% 30.43 in 10.0 mi WSW 9.2 mph - N/A   Clear
11:34 PM 21.2 °F 10.1 °F 15.8 °F 80% 30.43 in 10.0 mi SW 10.4 mph - N/A   Clear
11:54 PM 21.2 °F 10.1 °F 15.8 °F 80% 30.43 in 10.0 mi SW 10.4 mph - N/A   Clear